Location: Unspecified
(0.0000°N, 0.0000°E)
Time: 09:20:39
(UTC+00:00)

Explorer 11/Cluster Stage 4 - Pass Details

Date: 20 July 2020
Orbit: 467 x 1259 km, 28.8° (Epoch: 03 August)

Event Time Altitude Azimuth Distance (km) Brightness Sun altitude
Rises 15:13:40 0° 304° (NW) 3,557 10.8 39.9°
Reaches altitude 10° 15:16:05 10° 306° (NW) 2,725 10.6 39.3°
Maximum altitude 15:22:55 76° 31° (NNE) 1,152 8.0 37.8°
Drops below altitude 10° 15:30:58 10° 116° (ESE) 3,183 9.3 36.0°
Sets 15:34:00 0° 118° (ESE) 4,187 9.8 35.3°
